Location: Pacheco
(37.9835°N, 122.0752°W)
Time: 10:25:30
(UTC+00:00)

ARIANE 5 R/B - Pass Details

Date: 13 April 2024
Orbit: 747 x 793 km, 98.8° (Epoch: 23 May)

Event Time Altitude Azimuth Distance (km) Brightness Sun altitude
Rises 12:50:09 0° 18° (NNE) 3,300 6.4 -9.3°
Reaches altitude 10° 12:52:32 10° 23° (NNE) 2,367 5.7 -8.8°
Maximum altitude 12:57:40 55° 101° (E) 952 3.4 -7.9°
Drops below altitude 10° 13:02:44 10° 178° (S) 2,345 4.9 -6.9°
Sets 13:05:06 0° 183° (S) 3,266 5.5 -6.5°
